Regional Weather Roundup
Issued by NWS Little Rock, AR

Home | Current Version | Previous Version | Graphics & Text | Print | Product List | Glossary On
Versions: 1 2 3 4 5 6 7 8 9 10 11 12 13 14 15 16 17 18 19 20 21 22 23 24 25 26 27 28 29 30 31 32 33 34 35 36 37
000
ASUS44 KLZK 220605
RWRLZK

WEATHER ROUNDUP FOR ARKANSAS
NATIONAL WEATHER SERVICE LITTLE ROCK AR
100 AM CDT WED OCT 22 2014

NOTE: "FAIR" INDICATES FEW OR NO CLOUDS BELOW 12,000 FEET WITH NO
SIGNIFICANT WEATHER AND/OR OBSTRUCTIONS TO VISIBILITY.

ARZ001-003-010-029-220700-
NORTHWEST ARKANSAS

CITY           SKY/WX    TMP DP  RH WIND       PRES   REMARKS
FAYETTEVILLE   CLEAR     49  48  97 CALM      30.13S
6HR MIN TEMP:  48; 6HR MAX TEMP:  60;

FORT SMITH     CLEAR     60  57  89 NE5       30.10R
6HR MIN TEMP:  60; 6HR MAX TEMP:  73;

HARRISON       CLEAR     55  49  80 CALM      30.13F
6HR MIN TEMP:  53; 6HR MAX TEMP:  62;

BENTONVILLE    CLEAR     55  48  76 SE6       30.13R
6HR MIN TEMP:  55; 6HR MAX TEMP:  68;

ROGERS         CLEAR     57  54  89 SE6       30.13S
6HR MIN TEMP:  57; 6HR MAX TEMP:  65;

SILOAM SPGS    CLOUDY    57  48  72 CALM      30.13S
6HR MIN TEMP:  55; 6HR MAX TEMP:  66;

HIGHFILL       CLEAR     54  51  90 CALM      30.12S FOG
6HR MIN TEMP:  53; 6HR MAX TEMP:  67;

$$

ARZ004-005-016-220700-
NORTH CENTRAL ARKANSAS

CITY           SKY/WX    TMP DP  RH WIND       PRES   REMARKS
BATESVILLE     CLEAR     52  46  82 CALM      30.14S
6HR MIN TEMP:  50; 6HR MAX TEMP:  64;

FLIPPIN        CLEAR     48  43  81 CALM      30.15R
6HR MIN TEMP:  48; 6HR MAX TEMP:  64;

MTN HOME       CLEAR     54  47  77 E7        30.14R
6HR MIN TEMP:  54; 6HR MAX TEMP:  63;

$$

ARZ040-041-220700-
WEST CENTRAL ARKANSAS

CITY           SKY/WX    TMP DP  RH WIND       PRES   REMARKS
MENA           CLEAR     55  54  94 CALM      30.12S
MOUNT IDA      CLEAR     54  52  93 CALM      30.09S FOG
6HR MIN TEMP:  54; 6HR MAX TEMP:  65;

$$

ARZ009-017-025-026-028-220700-
NORTHEAST ARKANSAS

CITY           SKY/WX    TMP DP  RH WIND       PRES   REMARKS
CORNING        FAIR      52  46  82 NE7       30.16R
JONESBORO      CLEAR     56  48  74 NE8       30.14R
6HR MIN TEMP:  56; 6HR MAX TEMP:  61;

NEWPORT        CLEAR     53  50  90 NE7       30.14S
6HR MIN TEMP:  51; 6HR MAX TEMP:  65; 6HR PCP: TRACE;

WALNUT RIDGE   CLEAR     54  45  71 NE6       30.15R
6HR MIN TEMP:  54; 6HR MAX TEMP:  66;

BLYTHEVILLE    CLEAR     53  47  79 NE3       30.14R
6HR MIN TEMP:  53; 6HR MAX TEMP:  64;

$$

ARZ022-023-033-042-044-220700-
CENTRAL ARKANSAS

CITY           SKY/WX    TMP DP  RH WIND       PRES   REMARKS
LITTLE ROCK    CLEAR     57  52  83 CALM      30.11R
6HR MIN TEMP:  56; 6HR MAX TEMP:  71;

N LITTLE ROCK    N/A     60  50  68 E3        30.11R
6HR MIN TEMP:  59; 6HR MAX TEMP:  65;

JACKSONVILLE   CLEAR     51  48  91 W2        30.11R
6HR MIN TEMP:  50; 6HR MAX TEMP:  63;

SEARCY         CLEAR     53  49  86 N8        30.13R
6HR MIN TEMP:  50; 6HR MAX TEMP:  64;

HOT SPRINGS    CLEAR     55  53  93 CALM      30.12R
6HR MIN TEMP:  55; 6HR MAX TEMP:  68;

RUSSELLVILLE   CLEAR     53  51  93 CALM      30.11S
6HR MIN TEMP:  53; 6HR MAX TEMP:  63;

$$

ARZ036-220700-
EAST ARKANSAS

CITY           SKY/WX    TMP DP  RH WIND       PRES   REMARKS
WEST MEMPHIS   CLEAR     55  49  80 NE3       30.11R
6HR MIN TEMP:  53; 6HR MAX TEMP:  61;

$$

ARZ050-053-066-070-073-220700-
SOUTHWEST ARKANSAS

CITY           SKY/WX    TMP DP  RH WIND       PRES   REMARKS
ARKADELPHIA    FAIR      55  55 100 CALM      30.11R FOG
6HR MIN TEMP:  56; 6HR MAX TEMP:  68;

CAMDEN         CLEAR     54  52  94 CALM      30.09R FOG
TEXARKANA      CLEAR     60  59  96 CALM      30.08S
6HR MIN TEMP:  60; 6HR MAX TEMP:  73;

EL DORADO      FAIR      57  55  93 CALM      30.09S
6HR MIN TEMP:  55; 6HR MAX TEMP:  66;

DE QUEEN       CLOUDY    65  63  93 CALM      30.08R FOG
6HR MIN TEMP:  63; 6HR MAX TEMP:  69;

$$

ARZ056-057-069-220700-
SOUTHEAST ARKANSAS

CITY           SKY/WX    TMP DP  RH WIND       PRES   REMARKS
PINE BLUFF     CLEAR     54  50  86 CALM      30.10S
6HR MIN TEMP:  52; 6HR MAX TEMP:  70;

STUTTGART      CLEAR     55  46  71 NE3       30.10F
6HR MIN TEMP:  55; 6HR MAX TEMP:  70;

MONTICELLO     CLEAR     55  52  89 CALM      30.09S
6HR MIN TEMP:  54; 6HR MAX TEMP:  65; 6HR PCP: TRACE;


$$





USA.gov is the U.S. government's official web portal to all federal, state and local government web resources and services.